Location: Godiavel Galaoual
(15.2485°N, 12.6604°W)
Time: 00:42:53
(UTC+00:00)

Transit 4A - Pass Details

Date: 20 June 2021
Orbit: 872 x 972 km, 66.8° (Epoch: 29 July)

Event Time Altitude Azimuth Distance (km) Brightness Sun altitude
Rises 18:49:07 0° 8° (N) 3,459 11.1 6.7°
Reaches altitude 10° 18:52:57 10° 33° (NNE) 2,531 10.1 5.9°
Maximum altitude 18:55:52 14° 63° (ENE) 2,270 9.6 5.2°
Drops below altitude 10° 18:58:47 10° 93° (E) 2,555 9.6 4.6°
Sets 19:02:39 0° 118° (ESE) 3,516 10.2 3.7°
